CPV1026 SBBR-SBSP

Flight info

Callsign CPV1026
Flight time 1h 15m
Altitude 37000
Route GEBEP UZ2 ENTIT
Aircraft B738/M-SDE3/L

Departure

Time 2026-05-03 22:03
Airport Presidente Juscelino Kubitschek International Airport (SBBR)

Arrival

Time 2026-05-03 23:18
Airport Congonhas–Deputado Freitas Nobre Airport (SBSP)
Time Latitude Longitude Altitude Speed Heading
2026-05-03 21:47 -15.87124 -47.91861 3469 ft 0 kts 176°
2026-05-03 21:49 -15.87122 -47.91861 3470 ft 3 kts 176°
2026-05-03 21:49 -15.87095 -47.91862 3469 ft 4 kts 176°
2026-05-03 21:50 -15.87076 -47.91864 3467 ft 2 kts 156°
2026-05-03 21:50 -15.87069 -47.91872 3467 ft 2 kts 92°
2026-05-03 21:50 -15.87070 -47.91897 3469 ft 4 kts 86°
2026-05-03 21:50 -15.87072 -47.91926 3467 ft 4 kts 86°
2026-05-03 21:51 -15.87074 -47.91954 3468 ft 4 kts 86°
2026-05-03 21:51 -15.87075 -47.91971 3469 ft 0 kts 86°
2026-05-03 21:53 -15.87073 -47.91945 3469 ft 8 kts 86°
2026-05-03 21:53 -15.87068 -47.91861 3469 ft 13 kts 87°
2026-05-03 21:54 -15.87062 -47.91768 3469 ft 13 kts 87°
2026-05-03 21:54 -15.87056 -47.91680 3469 ft 12 kts 85°
2026-05-03 21:54 -15.87077 -47.91604 3468 ft 12 kts 144°
2026-05-03 21:54 -15.87153 -47.91587 3469 ft 11 kts 175°
2026-05-03 21:55 -15.87230 -47.91582 3468 ft 11 kts 177°
2026-05-03 21:55 -15.87304 -47.91577 3469 ft 11 kts 176°
2026-05-03 21:55 -15.87385 -47.91571 3470 ft 14 kts 175°
2026-05-03 21:55 -15.87493 -47.91561 3463 ft 19 kts 180°
2026-05-03 21:56 -15.87640 -47.91552 3454 ft 22 kts 174°
2026-05-03 21:56 -15.87736 -47.91635 3457 ft 21 kts 270°
2026-05-03 21:56 -15.87744 -47.91784 3454 ft 20 kts 266°
2026-05-03 21:56 -15.87754 -47.91929 3455 ft 20 kts 266°
2026-05-03 21:57 -15.87762 -47.92070 3458 ft 19 kts 265°
2026-05-03 21:57 -15.87771 -47.92205 3458 ft 19 kts 265°
2026-05-03 21:57 -15.87778 -47.92336 3462 ft 18 kts 266°
2026-05-03 21:57 -15.87788 -47.92463 3467 ft 17 kts 259°
2026-05-03 21:58 -15.87798 -47.92585 3470 ft 17 kts 268°
2026-05-03 21:58 -15.87803 -47.92703 3474 ft 16 kts 266°
2026-05-03 21:58 -15.87809 -47.92816 3476 ft 15 kts 268°
2026-05-03 21:58 -15.87818 -47.92925 3477 ft 15 kts 268°
2026-05-03 21:59 -15.87818 -47.93030 3478 ft 14 kts 272°
2026-05-03 21:59 -15.87828 -47.93129 3480 ft 14 kts 263°
2026-05-03 21:59 -15.87833 -47.93223 3484 ft 13 kts 265°
2026-05-03 21:59 -15.87838 -47.93316 3487 ft 13 kts 266°
2026-05-03 22:00 -15.87847 -47.93405 3489 ft 12 kts 265°
2026-05-03 22:00 -15.87853 -47.93493 3490 ft 12 kts 267°
2026-05-03 22:00 -15.87857 -47.93579 3494 ft 12 kts 266°
2026-05-03 22:00 -15.87862 -47.93662 3500 ft 11 kts 266°
2026-05-03 22:01 -15.87867 -47.93743 3502 ft 11 kts 266°
2026-05-03 22:01 -15.87872 -47.93822 3465 ft 11 kts 266°
2026-05-03 22:01 -15.87876 -47.93899 3510 ft 10 kts 266°
2026-05-03 22:01 -15.87893 -47.93970 3512 ft 10 kts 236°
2026-05-03 22:02 -15.87955 -47.93996 3515 ft 10 kts 180°
2026-05-03 22:02 -15.88021 -47.93988 3513 ft 10 kts 162°
2026-05-03 22:02 -15.88058 -47.93935 3513 ft 10 kts 99°
2026-05-03 22:02 -15.88042 -47.93699 3500 ft 68 kts 86°
2026-05-03 22:03 -15.87998 -47.92961 3477 ft 134 kts 85°
2026-05-03 22:03 -15.87921 -47.91806 3523 ft 182 kts 86°
2026-05-03 22:03 -15.87749 -47.90487 4250 ft 178 kts 85°
2026-05-03 22:03 -15.87975 -47.89353 5306 ft 162 kts 129°
2026-05-03 22:04 -15.88969 -47.88840 5943 ft 175 kts 169°
2026-05-03 22:04 -15.90280 -47.88643 6219 ft 204 kts 165°
2026-05-03 22:04 -15.91753 -47.88310 6355 ft 229 kts 164°
2026-05-03 22:04 -15.93393 -47.87915 6593 ft 255 kts 164°
2026-05-03 22:05 -15.95203 -47.87468 6979 ft 274 kts 164°
2026-05-03 22:05 -15.97083 -47.86995 7753 ft 280 kts 164°
2026-05-03 22:05 -15.98987 -47.86509 8537 ft 286 kts 164°
2026-05-03 22:05 -16.00911 -47.86011 8909 ft 284 kts 164°
2026-05-03 22:06 -16.02825 -47.85510 9029 ft 289 kts 164°
2026-05-03 22:06 -16.04779 -47.84987 9144 ft 291 kts 163°
2026-05-03 22:06 -16.06742 -47.84407 9688 ft 296 kts 162°
2026-05-03 22:06 -16.08710 -47.83808 10533 ft 297 kts 162°
2026-05-03 22:07 -16.10769 -47.83178 10794 ft 321 kts 162°
2026-05-03 22:07 -16.12988 -47.82499 11014 ft 342 kts 162°
2026-05-03 22:07 -16.15305 -47.81795 11579 ft 350 kts 162°
2026-05-03 22:07 -16.17657 -47.81083 12242 ft 354 kts 162°
2026-05-03 22:08 -16.20027 -47.80367 12913 ft 357 kts 162°
2026-05-03 22:08 -16.22428 -47.79642 13574 ft 361 kts 162°
2026-05-03 22:08 -16.24851 -47.78912 14160 ft 365 kts 163°
2026-05-03 22:08 -16.27315 -47.78169 14711 ft 368 kts 163°
2026-05-03 22:09 -16.28949 -47.77677 15080 ft 371 kts 163°
2026-05-03 22:09 -16.32291 -47.76669 15801 ft 376 kts 163°
2026-05-03 22:09 -16.33959 -47.76166 16150 ft 379 kts 163°
2026-05-03 22:10 -16.39082 -47.74620 17190 ft 388 kts 164°
2026-05-03 22:10 -16.41690 -47.73833 17720 ft 391 kts 164°
2026-05-03 22:10 -16.44312 -47.73042 18268 ft 394 kts 164°
2026-05-03 22:10 -16.46956 -47.72243 18732 ft 397 kts 164°
2026-05-03 22:11 -16.49623 -47.71437 19190 ft 401 kts 165°
2026-05-03 22:11 -16.52315 -47.70624 19654 ft 403 kts 165°
2026-05-03 22:11 -16.54990 -47.69815 20111 ft 406 kts 165°
2026-05-03 22:11 -16.57715 -47.68991 20565 ft 409 kts 165°
2026-05-03 22:12 -16.60461 -47.68160 21015 ft 412 kts 165°
2026-05-03 22:12 -16.63227 -47.67324 21458 ft 415 kts 165°
2026-05-03 22:12 -16.66009 -47.66481 21893 ft 418 kts 165°
2026-05-03 22:12 -16.68818 -47.65631 22315 ft 421 kts 165°
2026-05-03 22:13 -16.71645 -47.64775 22749 ft 424 kts 165°
2026-05-03 22:13 -16.74479 -47.63916 23179 ft 426 kts 165°
2026-05-03 22:13 -16.77341 -47.63049 23579 ft 429 kts 165°
2026-05-03 22:13 -16.80218 -47.62177 23927 ft 432 kts 165°
2026-05-03 22:14 -16.83117 -47.61298 24296 ft 433 kts 165°
2026-05-03 22:14 -16.86017 -47.60418 24674 ft 435 kts 165°
2026-05-03 22:14 -16.88929 -47.59534 25024 ft 437 kts 165°
2026-05-03 22:14 -16.91854 -47.58646 25361 ft 439 kts 165°
2026-05-03 22:15 -16.94791 -47.57754 25708 ft 441 kts 165°
2026-05-03 22:15 -16.97711 -47.56868 26021 ft 443 kts 165°
2026-05-03 22:15 -17.00678 -47.55966 26356 ft 444 kts 165°
2026-05-03 22:15 -17.03651 -47.55062 26672 ft 447 kts 165°
2026-05-03 22:16 -17.06649 -47.54151 26979 ft 449 kts 165°
2026-05-03 22:16 -17.09657 -47.53236 27292 ft 450 kts 166°
2026-05-03 22:16 -17.12673 -47.52318 27598 ft 452 kts 166°
2026-05-03 22:16 -17.15706 -47.51395 27898 ft 454 kts 166°
2026-05-03 22:17 -17.18752 -47.50468 28183 ft 456 kts 166°
2026-05-03 22:17 -17.21807 -47.49537 28465 ft 458 kts 166°
2026-05-03 22:17 -17.24833 -47.48615 28741 ft 460 kts 166°
2026-05-03 22:17 -17.27919 -47.47675 29018 ft 462 kts 166°
2026-05-03 22:18 -17.31054 -47.46719 29297 ft 464 kts 166°
2026-05-03 22:18 -17.34116 -47.45785 29546 ft 466 kts 166°
2026-05-03 22:18 -17.37240 -47.44831 29797 ft 468 kts 166°
2026-05-03 22:18 -17.40378 -47.43873 30046 ft 470 kts 166°
2026-05-03 22:19 -17.43522 -47.42913 30269 ft 472 kts 166°
2026-05-03 22:19 -17.46679 -47.41948 30494 ft 473 kts 166°
2026-05-03 22:19 -17.49853 -47.41036 30757 ft 472 kts 170°
2026-05-03 22:19 -17.53074 -47.40438 31072 ft 469 kts 174°
2026-05-03 22:20 -17.56296 -47.39954 31437 ft 466 kts 175°
2026-05-03 22:20 -17.59504 -47.39499 31785 ft 464 kts 175°
2026-05-03 22:20 -17.62707 -47.39041 32090 ft 464 kts 175°
2026-05-03 22:20 -17.65911 -47.38570 32390 ft 463 kts 174°
2026-05-03 22:21 -17.69056 -47.38094 32719 ft 462 kts 174°
2026-05-03 22:21 -17.72275 -47.37596 33079 ft 461 kts 174°
2026-05-03 22:21 -17.75400 -47.37106 33422 ft 459 kts 174°
2026-05-03 22:21 -17.78561 -47.36608 33732 ft 459 kts 174°
2026-05-03 22:22 -17.81714 -47.36110 34044 ft 458 kts 174°
2026-05-03 22:22 -17.84864 -47.35613 34326 ft 457 kts 175°
2026-05-03 22:22 -17.88015 -47.35115 34593 ft 457 kts 175°
2026-05-03 22:22 -17.91165 -47.34619 34832 ft 457 kts 175°
2026-05-03 22:23 -17.94313 -47.34122 35073 ft 457 kts 175°
2026-05-03 22:23 -17.97459 -47.33626 35322 ft 456 kts 175°
2026-05-03 22:23 -18.00597 -47.33131 35579 ft 456 kts 175°
2026-05-03 22:23 -18.03736 -47.32636 35813 ft 455 kts 175°
2026-05-03 22:24 -18.06870 -47.32141 36052 ft 455 kts 175°
2026-05-03 22:24 -18.09999 -47.31647 36297 ft 455 kts 175°
2026-05-03 22:24 -18.13126 -47.31153 36549 ft 454 kts 175°
2026-05-03 22:24 -18.16245 -47.30660 36792 ft 454 kts 175°
2026-05-03 22:25 -18.19337 -47.30171 37012 ft 453 kts 175°
2026-05-03 22:25 -18.25623 -47.29179 37057 ft 458 kts 175°
2026-05-03 22:26 -18.31915 -47.28181 37051 ft 455 kts 175°
2026-05-03 22:26 -18.38159 -47.27191 37057 ft 452 kts 175°
2026-05-03 22:27 -18.44374 -47.26205 37062 ft 450 kts 175°
2026-05-03 22:27 -18.50569 -47.25223 37069 ft 449 kts 175°
2026-05-03 22:28 -18.56763 -47.24240 37070 ft 449 kts 175°
2026-05-03 22:28 -18.62953 -47.23257 37079 ft 451 kts 175°
2026-05-03 22:29 -18.69167 -47.22269 37077 ft 453 kts 175°
2026-05-03 22:29 -18.75376 -47.21281 37081 ft 455 kts 175°
2026-05-03 22:30 -18.81652 -47.20282 37084 ft 457 kts 175°
2026-05-03 22:30 -18.87957 -47.19277 37078 ft 459 kts 175°
2026-05-03 22:31 -18.94286 -47.18267 37082 ft 460 kts 175°
2026-05-03 22:31 -19.00632 -47.17252 37080 ft 461 kts 175°
2026-05-03 22:32 -19.06983 -47.16237 37087 ft 461 kts 175°
2026-05-03 22:32 -19.13292 -47.15228 37071 ft 460 kts 175°
2026-05-03 22:33 -19.19627 -47.14251 37083 ft 459 kts 176°
2026-05-03 22:33 -19.25951 -47.13366 37098 ft 458 kts 177°
2026-05-03 22:34 -19.32267 -47.12488 37102 ft 457 kts 177°
2026-05-03 22:34 -19.38558 -47.11602 37116 ft 456 kts 176°
2026-05-03 22:35 -19.44844 -47.10710 37141 ft 455 kts 176°
2026-05-03 22:35 -19.51126 -47.09815 37144 ft 455 kts 176°
2026-05-03 22:36 -19.57388 -47.08923 37158 ft 454 kts 176°
2026-05-03 22:36 -19.63616 -47.08036 37144 ft 454 kts 176°
2026-05-03 22:37 -19.69885 -47.07142 37145 ft 454 kts 177°
2026-05-03 22:37 -19.76153 -47.06248 37131 ft 455 kts 176°
2026-05-03 22:38 -19.82431 -47.05351 37121 ft 455 kts 177°
2026-05-03 22:38 -19.88715 -47.04453 37102 ft 456 kts 177°
2026-05-03 22:39 -19.95016 -47.03551 37109 ft 456 kts 176°
2026-05-03 22:39 -20.01272 -47.02655 37098 ft 457 kts 177°
2026-05-03 22:40 -20.07583 -47.01751 37108 ft 457 kts 177°
2026-05-03 22:40 -20.13900 -47.00845 37104 ft 458 kts 177°
2026-05-03 22:41 -20.20225 -46.99937 37096 ft 458 kts 177°
2026-05-03 22:41 -20.26551 -46.99028 37101 ft 459 kts 177°
2026-05-03 22:42 -20.32876 -46.98119 37100 ft 459 kts 177°
2026-05-03 22:42 -20.39202 -46.97208 37091 ft 459 kts 177°
2026-05-03 22:43 -20.45528 -46.96297 37094 ft 458 kts 177°
2026-05-03 22:43 -20.51854 -46.95385 37096 ft 459 kts 177°
2026-05-03 22:44 -20.58178 -46.94473 37098 ft 458 kts 177°
2026-05-03 22:44 -20.64501 -46.93560 37099 ft 458 kts 177°
2026-05-03 22:45 -20.70826 -46.92646 37097 ft 458 kts 177°
2026-05-03 22:45 -20.77113 -46.91737 37096 ft 458 kts 177°
2026-05-03 22:46 -20.83423 -46.90792 37103 ft 458 kts 177°
2026-05-03 22:46 -20.89733 -46.89797 37106 ft 459 kts 176°
2026-05-03 22:47 -20.96071 -46.88797 37111 ft 459 kts 177°
2026-05-03 22:47 -21.02392 -46.87805 37114 ft 459 kts 177°
2026-05-03 22:48 -21.08716 -46.86815 37116 ft 459 kts 177°
2026-05-03 22:48 -21.15038 -46.85826 37116 ft 459 kts 177°
2026-05-03 22:49 -21.21364 -46.84835 37116 ft 460 kts 177°
2026-05-03 22:49 -21.25562 -46.84176 37120 ft 460 kts 177°
2026-05-03 22:50 -21.33408 -46.82945 37114 ft 460 kts 177°
2026-05-03 22:50 -21.39713 -46.81954 37113 ft 461 kts 177°
2026-05-03 22:51 -21.46064 -46.80955 37114 ft 461 kts 177°
2026-05-03 22:51 -21.52408 -46.79957 37125 ft 461 kts 177°
2026-05-03 22:52 -21.58752 -46.78957 37130 ft 461 kts 177°
2026-05-03 22:52 -21.65108 -46.77956 36881 ft 466 kts 178°
2026-05-03 22:52 -21.68326 -46.77450 36499 ft 464 kts 177°
2026-05-03 22:53 -21.71496 -46.76947 36064 ft 460 kts 178°
2026-05-03 22:53 -21.74652 -46.76446 35636 ft 456 kts 178°
2026-05-03 22:53 -21.77778 -46.75950 35214 ft 452 kts 178°
2026-05-03 22:53 -21.80879 -46.75459 34784 ft 450 kts 178°
2026-05-03 22:54 -21.83971 -46.74970 34359 ft 448 kts 178°
2026-05-03 22:54 -21.87046 -46.74484 33898 ft 446 kts 178°
2026-05-03 22:54 -21.90108 -46.74000 33457 ft 443 kts 178°
2026-05-03 22:54 -21.93158 -46.73518 33007 ft 440 kts 178°
2026-05-03 22:55 -21.96173 -46.73042 32585 ft 437 kts 178°
2026-05-03 22:55 -21.99140 -46.72571 32189 ft 434 kts 178°
2026-05-03 22:55 -22.02116 -46.72099 31772 ft 431 kts 177°
2026-05-03 22:55 -22.05048 -46.71634 31378 ft 428 kts 177°
2026-05-03 22:56 -22.08009 -46.71163 30973 ft 427 kts 177°
2026-05-03 22:56 -22.10954 -46.70696 30552 ft 425 kts 177°
2026-05-03 22:56 -22.13876 -46.70233 30117 ft 424 kts 177°
2026-05-03 22:56 -22.16787 -46.69771 29676 ft 421 kts 177°
2026-05-03 22:57 -22.19672 -46.69312 29233 ft 418 kts 177°
2026-05-03 22:57 -22.22546 -46.68854 28815 ft 415 kts 177°
2026-05-03 22:57 -22.25391 -46.68402 28397 ft 412 kts 177°
2026-05-03 22:57 -22.28219 -46.67952 27985 ft 409 kts 177°
2026-05-03 22:58 -22.31025 -46.67505 27577 ft 407 kts 177°
2026-05-03 22:58 -22.33820 -46.67061 27179 ft 404 kts 178°
2026-05-03 22:58 -22.36597 -46.66618 26779 ft 402 kts 178°
2026-05-03 22:58 -22.39353 -46.66295 26364 ft 392 kts 188°
2026-05-03 22:59 -22.41937 -46.66870 26008 ft 372 kts 208°
2026-05-03 22:59 -22.44135 -46.68161 25627 ft 359 kts 223°
2026-05-03 22:59 -22.45977 -46.69937 25259 ft 352 kts 229°
2026-05-03 22:59 -22.47738 -46.71771 24855 ft 351 kts 229°
2026-05-03 23:00 -22.49500 -46.73586 24471 ft 350 kts 229°
2026-05-03 23:00 -22.51270 -46.75388 24095 ft 349 kts 228°
2026-05-03 23:00 -22.53043 -46.77179 23694 ft 349 kts 228°
2026-05-03 23:00 -22.54817 -46.78967 23250 ft 347 kts 228°
2026-05-03 23:01 -22.56567 -46.80732 23028 ft 339 kts 228°
2026-05-03 23:01 -22.58278 -46.82458 22846 ft 332 kts 228°
2026-05-03 23:01 -22.59951 -46.84151 22672 ft 326 kts 228°
2026-05-03 23:01 -22.61615 -46.85839 22534 ft 330 kts 228°
2026-05-03 23:02 -22.63307 -46.87557 22373 ft 337 kts 228°
2026-05-03 23:02 -22.65026 -46.89299 22206 ft 338 kts 228°
2026-05-03 23:02 -22.66740 -46.91033 22021 ft 336 kts 228°
2026-05-03 23:02 -22.68520 -46.92676 21847 ft 338 kts 221°
2026-05-03 23:03 -22.70465 -46.94060 21692 ft 338 kts 217°
2026-05-03 23:03 -22.72478 -46.95373 21518 ft 337 kts 217°
2026-05-03 23:03 -22.74490 -46.96677 21355 ft 336 kts 217°
2026-05-03 23:03 -22.76485 -46.97990 21193 ft 335 kts 217°
2026-05-03 23:04 -22.78460 -46.99311 21032 ft 334 kts 217°
2026-05-03 23:04 -22.80433 -47.00646 20869 ft 333 kts 218°
2026-05-03 23:04 -22.82393 -47.01979 20698 ft 332 kts 218°
2026-05-03 23:04 -22.84348 -47.03313 20543 ft 332 kts 218°
2026-05-03 23:05 -22.86303 -47.04648 20377 ft 332 kts 218°
2026-05-03 23:05 -22.88253 -47.05980 20201 ft 332 kts 218°
2026-05-03 23:05 -22.90232 -47.07326 19734 ft 338 kts 217°
2026-05-03 23:05 -22.92239 -47.08683 19291 ft 340 kts 217°
2026-05-03 23:06 -22.94252 -47.10042 18818 ft 342 kts 217°
2026-05-03 23:06 -22.96276 -47.11410 18324 ft 343 kts 216°
2026-05-03 23:06 -22.98268 -47.12757 17804 ft 338 kts 216°
2026-05-03 23:06 -23.00237 -47.14086 17330 ft 330 kts 215°
2026-05-03 23:07 -23.02347 -47.15046 16844 ft 330 kts 195°
2026-05-03 23:07 -23.04656 -47.15150 16426 ft 337 kts 176°
2026-05-03 23:07 -23.06969 -47.14671 15987 ft 340 kts 172°
2026-05-03 23:07 -23.09288 -47.14135 15512 ft 342 kts 172°
2026-05-03 23:08 -23.11605 -47.13600 15030 ft 337 kts 171°
2026-05-03 23:08 -23.13885 -47.13080 14580 ft 330 kts 171°
2026-05-03 23:08 -23.16089 -47.12585 14118 ft 324 kts 171°
2026-05-03 23:08 -23.18305 -47.12094 13630 ft 325 kts 171°
2026-05-03 23:09 -23.20529 -47.11604 13172 ft 326 kts 171°
2026-05-03 23:09 -23.22749 -47.11115 12707 ft 326 kts 171°
2026-05-03 23:09 -23.24943 -47.10630 12255 ft 317 kts 171°
2026-05-03 23:09 -23.27074 -47.10161 11880 ft 308 kts 171°
2026-05-03 23:10 -23.29140 -47.09708 11515 ft 298 kts 171°
2026-05-03 23:10 -23.31150 -47.09268 11170 ft 292 kts 171°
2026-05-03 23:10 -23.33141 -47.08833 10845 ft 291 kts 171°
2026-05-03 23:10 -23.35128 -47.08399 10498 ft 291 kts 171°
2026-05-03 23:11 -23.37113 -47.07965 10155 ft 290 kts 170°
2026-05-03 23:11 -23.39042 -47.07540 10169 ft 276 kts 171°
2026-05-03 23:11 -23.40908 -47.07031 9584 ft 286 kts 157°
2026-05-03 23:11 -23.42439 -47.05721 9218 ft 285 kts 131°
2026-05-03 23:12 -23.43365 -47.03843 8880 ft 282 kts 111°
2026-05-03 23:12 -23.43892 -47.01815 8636 ft 277 kts 108°
2026-05-03 23:12 -23.44403 -46.99774 8289 ft 282 kts 108°
2026-05-03 23:12 -23.44929 -46.97688 7861 ft 287 kts 108°
2026-05-03 23:13 -23.45461 -46.95590 7546 ft 287 kts 108°
2026-05-03 23:13 -23.45994 -46.93507 7275 ft 282 kts 108°
2026-05-03 23:13 -23.46509 -46.91503 7016 ft 279 kts 108°
2026-05-03 23:13 -23.47033 -46.89474 6766 ft 277 kts 108°
2026-05-03 23:14 -23.47553 -46.87466 6502 ft 275 kts 108°
2026-05-03 23:14 -23.48070 -46.85470 6242 ft 273 kts 108°
2026-05-03 23:14 -23.48583 -46.83492 5973 ft 269 kts 108°
2026-05-03 23:14 -23.49084 -46.81561 5724 ft 260 kts 107°
2026-05-03 23:15 -23.49567 -46.79691 5483 ft 252 kts 107°
2026-05-03 23:15 -23.50037 -46.77874 5254 ft 248 kts 107°
2026-05-03 23:15 -23.50497 -46.76098 5068 ft 244 kts 107°
2026-05-03 23:15 -23.50956 -46.74349 4844 ft 236 kts 109°
2026-05-03 23:16 -23.51801 -46.72903 4572 ft 224 kts 146°
2026-05-03 23:16 -23.53122 -46.72116 4401 ft 212 kts 153°
2026-05-03 23:16 -23.54391 -46.71332 4167 ft 207 kts 153°
2026-05-03 23:16 -23.55619 -46.70553 3970 ft 201 kts 149°
2026-05-03 23:17 -23.56799 -46.69731 3761 ft 201 kts 149°
2026-05-03 23:17 -23.57955 -46.68927 3521 ft 192 kts 149°
2026-05-03 23:17 -23.59044 -46.68166 3265 ft 181 kts 148°
2026-05-03 23:17 -23.60064 -46.67457 3114 ft 161 kts 148°
2026-05-03 23:18 -23.60933 -46.66849 2943 ft 137 kts 146°
2026-05-03 23:18 -23.61710 -46.66315 2754 ft 134 kts 148°
2026-05-03 23:18 -23.62499 -46.65758 2607 ft 129 kts 146°
2026-05-03 23:18 -23.63038 -46.65388 2609 ft 33 kts 147°
2026-05-03 23:19 -23.63165 -46.65390 2604 ft 16 kts 218°
2026-05-03 23:19 -23.63156 -46.65448 2601 ft 9 kts 319°
2026-05-03 23:19 -23.63107 -46.65491 2601 ft 9 kts 324°
2026-05-03 23:19 -23.63050 -46.65516 2601 ft 9 kts 349°
2026-05-03 23:20 -23.62992 -46.65531 2602 ft 9 kts 330°
2026-05-03 23:20 -23.62941 -46.65562 2602 ft 8 kts 328°
2026-05-03 23:20 -23.62893 -46.65596 2602 ft 8 kts 328°
2026-05-03 23:20 -23.62832 -46.65639 2602 ft 14 kts 328°
2026-05-03 23:21 -23.62773 -46.65680 2602 ft 15 kts 327°
2026-05-03 23:21 -23.62688 -46.65740 2601 ft 14 kts 327°
2026-05-03 23:21 -23.62635 -46.65778 2601 ft 6 kts 323°
2026-05-03 23:21 -23.62639 -46.65831 2600 ft 6 kts 242°
2026-05-03 23:22 -23.62655 -46.65860 2600 ft 2 kts 239°
2026-05-03 23:22 -23.62658 -46.65864 2600 ft 0 kts 238°